Novato, CA

12:20 AM PST on December 06, 2016 (GMT -0800)
Gnoss

Weather History for KDVO - May, 2013

Change the Weather History Date:

Tuesday, May 28, 2013

  Actual Average (KAPC) Record (KAPC)
Temperature  
Mean Temperature 62 °F 61 °F  
Max Temperature 71 °F 75 °F 92 °F (2003)
Min Temperature 53 °F 47 °F 35 °F (2010)
Degree Days  
Heating Degree Days 3    
Month to date heating degree days  
Since 1 July heating degree days  
Cooling Degree Days 0    
Month to date cooling degree days  
Year to date cooling degree days  
Growing Degree Days 12 (Base 50)    
Moisture  
Dew Point 54 °F    
Average Humidity 77    
Maximum Humidity 100    
Minimum Humidity 50    
Precipitation  
Precipitation 0.00 in - 1.18 in (1990)
Month to date precipitation  
Year to date precipitation  
Sea Level Pressure  
Sea Level Pressure 29.97 in    
Wind  
Wind Speed 5 mph (WNW)    
Max Wind Speed 15 mph    
Max Gust Speed 20 mph    
Visibility 10 miles    
Events Rain    
T = Trace of Precipitation, MM = Missing Value Source: NWS Daily Summary

Daily Weather History Graph

Daily Weather History Graph

Search for Another Location

Airport or City:

Trip Planner

Search our weather history database for the weather conditions in past years. The results will help you decide how hot, cold, wet, or windy it might be!

Date:

Astronomy

May. 28, 2013 Rise Set
Actual Time 5:50 AM PDT 8:25 PM PDT
Civil Twilight 5:19 AM PDT 8:55 PM PDT
Nautical Twilight 4:41 AM PDT 9:33 PM PDT
Astronomical Twilight 3:59 AM PDT 10:16 PM PDT
Moon 11:54 PM PDT (5/28) 9:43 AM PDT (5/28)
Length of Visible Light 15h 35m
Length of Day
14h 34m
Waning Gibbous, 82% of the Moon is Illuminated
May 28
Waning Gibbous
May 31
Last Quarter
Jun 8
New
Jun 16
First Quarter
Jun 23
Full

Hourly Weather History & Observations

Time (PDT) Temp. Dew Point Humidity Pressure Visibility Wind Dir Wind Speed Gust Speed Precip Events Conditions
12:15 AM 55.4 °F 55.4 °F 100% 30.02 in 5.0 mi NNE 3.5 mph - N/A Rain Light Rain
12:35 AM 55.4 °F 55.4 °F 100% 30.01 in 2.5 mi Calm Calm - N/A Rain Light Rain
12:55 AM 55.4 °F 55.4 °F 100% 30.00 in 3.0 mi Calm Calm - N/A Rain Light Rain
1:15 AM 55.4 °F 55.4 °F 100% 29.99 in 8.0 mi Calm Calm - N/A   Unknown
1:35 AM 55.4 °F 55.4 °F 100% 30.00 in 10.0 mi NNE 3.5 mph - N/A   Unknown
1:55 AM 55.4 °F 55.4 °F 100% 30.00 in 3.0 mi North 3.5 mph - N/A Rain Light Rain
2:15 AM 55.4 °F 55.4 °F 100% 29.99 in 2.0 mi Calm Calm - N/A Rain Light Rain
2:35 AM 57.2 °F 57.2 °F 100% 29.99 in 7.0 mi SE 3.5 mph - N/A   Unknown
2:55 AM 57.2 °F 57.2 °F 100% 30.00 in 10.0 mi South 3.5 mph - N/A   Unknown
3:15 AM 57.2 °F 57.2 °F 100% 29.99 in 10.0 mi Calm Calm - N/A   Unknown
3:35 AM 55.4 °F 55.4 °F 100% 29.98 in 10.0 mi NNW 3.5 mph - N/A   Unknown
3:55 AM 55.4 °F 55.4 °F 100% 29.99 in 10.0 mi Calm Calm - N/A   Unknown
4:15 AM 55.4 °F 55.4 °F 100% 29.98 in 10.0 mi Calm Calm - N/A   Unknown
4:35 AM 55.4 °F 55.4 °F 100% 29.98 in 10.0 mi Calm Calm - N/A   Unknown
4:55 AM 53.6 °F 53.6 °F 100% 29.98 in 10.0 mi NNW 4.6 mph - N/A   Unknown
5:15 AM 53.6 °F 53.6 °F 100% 29.98 in 10.0 mi North 4.6 mph - N/A   Unknown
5:35 AM 55.4 °F 55.4 °F 100% 29.96 in 10.0 mi SSW 3.5 mph - N/A   Unknown
5:55 AM 53.6 °F 53.6 °F 100% 29.97 in 10.0 mi East 3.5 mph - N/A   Unknown
6:15 AM 55.4 °F 55.4 °F 100% 29.97 in 10.0 mi Calm Calm - N/A   Unknown
6:35 AM 55.4 °F 55.4 °F 100% 29.97 in 10.0 mi SE 4.6 mph - N/A   Unknown
6:55 AM 55.4 °F 55.4 °F 100% 29.98 in 10.0 mi East 3.5 mph - N/A   Partly Cloudy
7:15 AM 57.2 °F 57.2 °F 100% 29.98 in 10.0 mi NW 4.6 mph - N/A   Clear
7:35 AM 59.0 °F 59.0 °F 100% 29.97 in 10.0 mi West 8.1 mph - N/A   Clear
7:55 AM 60.8 °F 57.2 °F 88% 29.98 in 10.0 mi NNW 3.5 mph - N/A   Clear
8:15 AM 60.8 °F 60.8 °F 100% 29.98 in 10.0 mi ESE 3.5 mph - N/A   Clear
8:35 AM 60.8 °F 60.8 °F 100% 29.99 in 10.0 mi SSE 4.6 mph - N/A   Scattered Clouds
8:55 AM 62.6 °F 62.6 °F 100% 29.98 in 10.0 mi Calm Calm - N/A   Mostly Cloudy
9:15 AM 62.6 °F 57.2 °F 82% 30.00 in 10.0 mi WNW 9.2 mph - N/A   Overcast
9:35 AM 62.6 °F 57.2 °F 82% 30.00 in 10.0 mi WNW 9.2 mph - N/A   Overcast
9:55 AM 62.6 °F 57.2 °F 82% 30.00 in 10.0 mi NW 9.2 mph - N/A   Overcast
10:15 AM 62.6 °F 57.2 °F 82% 30.00 in 10.0 mi WNW 9.2 mph - N/A   Mostly Cloudy
10:35 AM 62.6 °F 57.2 °F 82% 30.00 in 10.0 mi WNW 5.8 mph - N/A   Mostly Cloudy
10:55 AM 64.4 °F 57.2 °F 77% 30.00 in 10.0 mi NNW 8.1 mph - N/A   Overcast
11:15 AM 64.4 °F 55.4 °F 73% 30.00 in 10.0 mi NW 10.4 mph - N/A   Mostly Cloudy
11:35 AM 66.2 °F 53.6 °F 64% 30.00 in 10.0 mi WNW 6.9 mph - N/A   Partly Cloudy
11:55 AM 66.2 °F 53.6 °F 64% 30.00 in 10.0 mi NW 6.9 mph - N/A   Partly Cloudy
12:15 PM 68.0 °F 53.6 °F 60% 30.00 in 10.0 mi North 6.9 mph - N/A   Partly Cloudy
12:35 PM 68.0 °F 53.6 °F 60% 29.99 in 10.0 mi NNW 8.1 mph - N/A   Partly Cloudy
12:55 PM 68.0 °F 53.6 °F 60% 29.99 in 10.0 mi West 9.2 mph 16.1 mph N/A   Partly Cloudy
1:15 PM 68.0 °F 55.4 °F 64% 29.99 in 10.0 mi WNW 9.2 mph 16.1 mph N/A   Clear
1:35 PM 68.0 °F 53.6 °F 60% 29.99 in 10.0 mi NNW 4.6 mph - N/A   Partly Cloudy
1:55 PM 69.8 °F 53.6 °F 56% 29.98 in 10.0 mi WNW 10.4 mph - N/A   Clear
2:15 PM 69.8 °F 53.6 °F 56% 29.98 in 10.0 mi West 6.9 mph - N/A   Clear
2:35 PM 69.8 °F 53.6 °F 56% 29.97 in 10.0 mi West 6.9 mph - N/A   Clear
2:55 PM 71.6 °F 53.6 °F 53% 29.98 in 10.0 mi West 12.7 mph - N/A   Clear
3:15 PM 71.6 °F 53.6 °F 53% 29.98 in 10.0 mi NW 8.1 mph 16.1 mph N/A   Clear
3:35 PM 71.6 °F 53.6 °F 53% 29.97 in 10.0 mi West 11.5 mph 16.1 mph N/A   Clear
3:55 PM 71.6 °F 53.6 °F 53% 29.96 in 10.0 mi West 10.4 mph - N/A   Clear
4:15 PM 71.6 °F 51.8 °F 50% 29.96 in 10.0 mi WSW 15.0 mph - N/A   Clear
4:35 PM 69.8 °F 51.8 °F 53% 29.96 in 10.0 mi WSW 13.8 mph - N/A   Clear
4:55 PM 69.8 °F 51.8 °F 53% 29.96 in 10.0 mi South 4.6 mph - N/A   Clear
5:15 PM 68.0 °F 51.8 °F 56% 29.95 in 10.0 mi Calm Calm - N/A   Clear
5:35 PM 68.0 °F 51.8 °F 56% 29.94 in 10.0 mi SW 4.6 mph - N/A   Clear
5:55 PM 68.0 °F 50.0 °F 52% 29.94 in 10.0 mi NNW 11.5 mph - N/A   Clear
6:15 PM 66.2 °F 50.0 °F 56% 29.95 in 10.0 mi NNW 11.5 mph - N/A   Clear
6:35 PM 66.2 °F 50.0 °F 56% 29.94 in 10.0 mi North 12.7 mph - N/A   Clear
6:55 PM 64.4 °F 50.0 °F 59% 29.94 in 10.0 mi North 12.7 mph 16.1 mph N/A   Clear
7:15 PM 64.4 °F 50.0 °F 59% 29.95 in 10.0 mi North 8.1 mph 16.1 mph N/A   Clear
7:35 PM 62.6 °F 50.0 °F 63% 29.95 in 10.0 mi Calm Calm - N/A   Clear
7:55 PM 62.6 °F 48.2 °F 59% 29.95 in 10.0 mi NNW 4.6 mph - N/A   Clear
8:15 PM 59.0 °F 48.2 °F 67% 29.95 in 10.0 mi SW 11.5 mph - N/A   Clear
8:35 PM 59.0 °F 48.2 °F 67% 29.95 in 10.0 mi NE 9.2 mph 19.6 mph N/A   Clear
8:55 PM 60.8 °F 48.2 °F 63% 29.95 in 10.0 mi SE 3.5 mph - N/A   Clear
9:15 PM 59.0 °F 48.2 °F 67% 29.94 in 10.0 mi Calm Calm - N/A   Clear
9:35 PM 59.0 °F 48.2 °F 67% 29.94 in 10.0 mi ENE 6.9 mph - N/A   Clear
9:55 PM 59.0 °F 48.2 °F 67% 29.92 in 10.0 mi SSW 8.1 mph - N/A   Clear
10:15 PM 59.0 °F 46.4 °F 63% 29.94 in 10.0 mi East 3.5 mph - N/A   Clear
10:35 PM 59.0 °F 48.2 °F 67% 29.95 in 10.0 mi ENE 6.9 mph - N/A   Clear
10:55 PM 59.0 °F 48.2 °F 67% 29.95 in 10.0 mi SSW 13.8 mph - N/A   Mostly Cloudy
11:15 PM 59.0 °F 50.0 °F 72% 29.96 in 10.0 mi SSW 13.8 mph 18.4 mph N/A   Overcast
11:35 PM 59.0 °F 50.0 °F 72% 29.95 in 10.0 mi SSW 10.4 mph - N/A   Overcast
11:55 PM 59.0 °F 50.0 °F 72% 29.94 in 10.0 mi South 5.8 mph - N/A   Overcast